| time (UTC) | temp C | wind direction | speed KPH | gust KPH | rain 1hr cm | rain 24hr cm | rain mn cm | humidity % | barometer mb |
| 20260504204218 | 28 | 337 | 4.8 | 16.1 | 0.00 | 0.00 | 0.00 | 28 | 1000.9 |
| 20260504203716 | 28 | 336 | 3.2 | 11.3 | 0.00 | 0.00 | 0.00 | 28 | 1000.9 |
| 20260504203216 | 28 | 339 | 4.8 | 11.3 | 0.00 | 0.00 | 0.00 | 26 | 1001.0 |
| 20260504202719 | 29 | 350 | 3.2 | 11.3 | 0.00 | 0.00 | 0.00 | 27 | 1000.9 |
| 20260504202217 | 29 | 335 | 3.2 | 9.7 | 0.00 | 0.00 | 0.00 | 26 | 1000.9 |
| 20260504201717 | 29 | 317 | 4.8 | 12.9 | 0.00 | 0.00 | 0.00 | 26 | 1000.9 |
| 20260504201219 | 29 | 311 | 4.8 | 12.9 | 0.00 | 0.00 | 0.00 | 26 | 1000.8 |
| 20260504200217 | 29 | 344 | 4.8 | 11.3 | 0.00 | 0.00 | 0.00 | 25 | 1000.7 |
| 20260504195719 | 30 | 350 | 4.8 | 12.9 | 0.00 | 0.00 | 0.00 | 23 | 1000.7 |
| 20260504194717 | 30 | 301 | 3.2 | 12.9 | 0.00 | 0.00 | 0.00 | 25 | 1000.7 |
| 20260504194217 | 30 | 349 | 4.8 | 8.0 | 0.00 | 0.00 | 0.00 | 24 | 1000.7 |
| 20260504193716 | 30 | 334 | 4.8 | 14.5 | 0.00 | 0.00 | 0.00 | 22 | 1000.7 |
| 20260504193217 | 30 | 336 | 4.8 | 9.7 | 0.00 | 0.00 | 0.00 | 22 | 1000.7 |
| 20260504192217 | 30 | 315 | 3.2 | 12.9 | 0.00 | 0.00 | 0.00 | 24 | 1000.6 |
| 20260504191717 | 30 | 9 | 4.8 | 11.3 | 0.00 | 0.00 | 0.00 | 23 | 1000.6 |
| 20260504185217 | 30 | 23 | 3.2 | 11.3 | 0.00 | 0.00 | 0.00 | 22 | 1000.5 |
| 20260504184717 | 31 | 327 | 4.8 | 11.3 | 0.00 | 0.00 | 0.00 | 22 | 1000.7 |
| 20260504184217 | 30 | 0 | 4.8 | 11.3 | 0.00 | 0.00 | 0.00 | 21 | 1000.6 |
| 20260504183716 | 31 | 321 | 3.2 | 4.8 | 0.00 | 0.00 | 0.00 | 23 | 1000.6 |
| 20260504182719 | 30 | 244 | 3.2 | 9.7 | 0.00 | 0.00 | 0.00 | 20 | 1000.6 |
| 20260504182217 | 30 | 267 | 4.8 | 11.3 | 0.00 | 0.00 | 0.00 | 20 | 1000.7 |
| 20260504181716 | 30 | 346 | 3.2 | 11.3 | 0.00 | 0.00 | 0.00 | 21 | 1000.7 |
| 20260504180717 | 30 | 326 | 3.2 | 8.0 | 0.00 | 0.00 | 0.00 | 23 | 1000.7 |
| 20260504180216 | 30 | 331 | 3.2 | 9.7 | 0.00 | 0.00 | 0.00 | 22 | 1000.7 |
| 20260504175719 | 30 | 328 | 1.6 | 4.8 | 0.00 | 0.00 | 0.00 | 22 | 1000.6 |
| 20260504175217 | 30 | 268 | 3.2 | 9.7 | 0.00 | 0.00 | 0.00 | 21 | 1000.7 |
| 20260504174716 | 30 | 318 | 3.2 | 11.3 | 0.00 | 0.00 | 0.00 | 21 | 1000.8 |
| 20260504174217 | 30 | 288 | 4.8 | 9.7 | 0.00 | 0.00 | 0.00 | 21 | 1000.9 |
| 20260504173717 | 30 | 325 | 3.2 | 11.3 | 0.00 | 0.00 | 0.00 | 22 | 1000.9 |
| 20260504173217 | 29 | 284 | 4.8 | 12.9 | 0.00 | 0.00 | 0.00 | 22 | 1001.0 |
| 20260504172216 | 29 | 248 | 3.2 | 12.9 | 0.00 | 0.00 | 0.00 | 23 | 1001.1 |
| 20260504171716 | 28 | 302 | 1.6 | 4.8 | 0.00 | 0.00 | 0.00 | 25 | 1001.1 |
| 20260504171219 | 29 | 287 | 3.2 | 9.7 | 0.00 | 0.00 | 0.00 | 25 | 1001.3 |
| 20260504170716 | 29 | 307 | 3.2 | 8.0 | 0.00 | 0.00 | 0.00 | 24 | 1001.3 |
| 20260504170217 | 28 | 275 | 3.2 | 16.1 | 0.00 | 0.00 | 0.00 | 25 | 1001.4 |
| 20260504160217 | 25 | 238 | 1.6 | 4.8 | 0.00 | 0.00 | 0.00 | 35 | 1001.5 |
| 20260504141218 | 18 | 258 | 1.6 | 4.8 | 0.00 | 0.00 | 0.00 | 48 | 1001.9 |
| 20260504140717 | 18 | 255 | 1.6 | 8.0 | 0.00 | 0.00 | 0.00 | 48 | 1001.9 |
| 20260504130716 | 13 | 141 | 0.0 | 1.6 | 0.00 | 0.00 | 0.00 | 64 | 1001.8 |
| 20260504130217 | 13 | 142 | 0.0 | 0.0 | 0.00 | 0.00 | 0.00 | 66 | 1001.7 |
| 20260504120215 | 11 | 142 | 0.0 | 0.0 | 0.00 | 0.00 | 0.00 | 68 | 1001.2 |
| 20260504110714 | 12 | 142 | 0.0 | 1.6 | 0.00 | 0.00 | 0.00 | 58 | 1001.3 |
| 20260504110215 | 12 | 142 | 0.0 | 0.0 | 0.00 | 0.00 | 0.00 | 57 | 1001.2 |
| 20260504100214 | 14 | 178 | 0.0 | 0.0 | 0.00 | 0.00 | 0.00 | 49 | 1001.4 |
| 20260504081715 | 16 | 129 | 1.6 | 8.0 | 0.00 | 0.00 | 0.00 | 42 | 1002.8 |
| 20260504081219 | 16 | 128 | 4.8 | 11.3 | 0.00 | 0.00 | 0.00 | 42 | 1002.7 |
| 20260504080715 | 16 | 147 | 6.4 | 9.7 | 0.00 | 0.00 | 0.00 | 42 | 1002.8 |
| 20260504080214 | 16 | 148 | 3.2 | 11.3 | 0.00 | 0.00 | 0.00 | 42 | 1003.0 |
| 20260504070215 | 16 | 147 | 3.2 | 9.7 | 0.00 | 0.00 | 0.00 | 44 | 1004.2 |
| 20260504060214 | 14 | 93 | 0.0 | 0.0 | 0.00 | 0.00 | 0.00 | 51 | 1005.1 |
| 20260504045718 | 15 | 93 | 0.0 | 0.0 | 0.00 | 0.00 | 0.00 | 47 | 1005.8 |
| 20260504045215 | 15 | 93 | 0.0 | 1.6 | 0.00 | 0.00 | 0.00 | 48 | 1005.8 |
| 20260504044714 | 15 | 93 | 0.0 | 1.6 | 0.00 | 0.00 | 0.00 | 49 | 1005.9 |
| 20260504044219 | 15 | 93 | 0.0 | 0.0 | 0.00 | 0.00 | 0.00 | 49 | 1005.9 |
| 20260504043714 | 15 | 93 | 0.0 | 0.0 | 0.00 | 0.00 | 0.00 | 49 | 1006.1 |
| 20260504043215 | 15 | 93 | 0.0 | 0.0 | 0.00 | 0.00 | 0.00 | 51 | 1006.2 |
| 20260504042719 | 15 | 93 | 0.0 | 0.0 | 0.00 | 0.00 | 0.00 | 51 | 1006.2 |
| 20260504042214 | 15 | 93 | 0.0 | 0.0 | 0.00 | 0.00 | 0.00 | 51 | 1006.3 |
| 20260504041714 | 15 | 93 | 0.0 | 0.0 | 0.00 | 0.00 | 0.00 | 50 | 1006.4 |
| 20260504041217 | 15 | 93 | 0.0 | 0.0 | 0.00 | 0.00 | 0.00 | 51 | 1006.5 |
| 20260504040715 | 16 | 93 | 0.0 | 0.0 | 0.00 | 0.00 | 0.00 | 49 | 1006.6 |
| 20260504040214 | 16 | 93 | 0.0 | 0.0 | 0.00 | 0.00 | 0.00 | 48 | 1006.6 |
| 20260504035719 | 16 | 93 | 0.0 | 0.0 | 0.00 | 0.00 | 0.00 | 48 | 1006.7 |
| 20260504035214 | 16 | 93 | 0.0 | 0.0 | 0.00 | 0.00 | 0.00 | 49 | 1006.8 |
| 20260504034714 | 16 | 93 | 0.0 | 0.0 | 0.00 | 0.00 | 0.00 | 49 | 1006.9 |
| 20260504034219 | 16 | 93 | 0.0 | 0.0 | 0.00 | 0.00 | 0.00 | 47 | 1006.9 |
| 20260504033715 | 16 | 93 | 0.0 | 0.0 | 0.00 | 0.00 | 0.00 | 46 | 1006.9 |
| 20260504033214 | 16 | 93 | 0.0 | 0.0 | 0.00 | 0.00 | 0.00 | 48 | 1006.9 |
| 20260504032719 | 16 | 93 | 0.0 | 0.0 | 0.00 | 0.00 | 0.00 | 48 | 1006.9 |
| 20260504032214 | 17 | 93 | 0.0 | 0.0 | 0.00 | 0.00 | 0.00 | 46 | 1006.8 |
| 20260504031714 | 17 | 93 | 0.0 | 0.0 | 0.00 | 0.00 | 0.00 | 46 | 1006.9 |
| 20260504031216 | 17 | 93 | 0.0 | 0.0 | 0.00 | 0.00 | 0.00 | 46 | 1006.9 |
| 20260504030714 | 17 | 93 | 0.0 | 0.0 | 0.00 | 0.00 | 0.00 | 47 | 1006.9 |
| 20260504030214 | 17 | 93 | 0.0 | 0.0 | 0.00 | 0.00 | 0.00 | 46 | 1006.8 |
| 20260504025214 | 18 | 93 | 0.0 | 0.0 | 0.00 | 0.00 | 0.00 | 45 | 1006.9 |
| 20260504024714 | 18 | 93 | 0.0 | 0.0 | 0.00 | 0.00 | 0.00 | 45 | 1006.9 |
| 20260504023714 | 18 | 93 | 0.0 | 0.0 | 0.00 | 0.00 | 0.00 | 43 | 1007.0 |
| 20260504023214 | 18 | 93 | 0.0 | 0.0 | 0.00 | 0.00 | 0.00 | 43 | 1007.0 |
| 20260504022717 | 19 | 93 | 0.0 | 0.0 | 0.00 | 0.00 | 0.00 | 43 | 1007.0 |
| 20260504022214 | 19 | 93 | 0.0 | 0.0 | 0.00 | 0.00 | 0.00 | 42 | 1007.1 |
| 20260504021219 | 20 | 93 | 0.0 | 0.0 | 0.00 | 0.00 | 0.00 | 40 | 1007.1 |
| 20260504020715 | 20 | 93 | 0.0 | 0.0 | 0.00 | 0.00 | 0.00 | 39 | 1007.1 |
| 20260504020214 | 20 | 93 | 0.0 | 0.0 | 0.00 | 0.00 | 0.00 | 39 | 1007.2 |
| 20260504015214 | 21 | 93 | 0.0 | 0.0 | 0.00 | 0.00 | 0.00 | 37 | 1007.1 |
| 20260504014218 | 21 | 93 | 0.0 | 0.0 | 0.00 | 0.00 | 0.00 | 35 | 1007.1 |
| 20260504013715 | 21 | 93 | 0.0 | 0.0 | 0.00 | 0.00 | 0.00 | 35 | 1007.1 |
| 20260504013215 | 22 | 93 | 0.0 | 0.0 | 0.00 | 0.00 | 0.00 | 34 | 1007.1 |
| 20260504012718 | 22 | 93 | 0.0 | 0.0 | 0.00 | 0.00 | 0.00 | 33 | 1007.0 |
| 20260504011218 | 22 | 93 | 1.6 | 3.2 | 0.00 | 0.00 | 0.00 | 31 | 1007.1 |
| 20260504010714 | 22 | 93 | 0.0 | 3.2 | 0.00 | 0.00 | 0.00 | 31 | 1007.2 |
| 20260504005718 | 23 | 93 | 0.0 | 3.2 | 0.00 | 0.00 | 0.00 | 29 | 1007.2 |
| 20260504005214 | 23 | 93 | 0.0 | 1.6 | 0.00 | 0.00 | 0.00 | 29 | 1007.3 |
| 20260504004714 | 23 | 93 | 0.0 | 0.0 | 0.00 | 0.00 | 0.00 | 29 | 1007.4 |
| 20260504003214 | 23 | 93 | 0.0 | 1.6 | 0.00 | 0.00 | 0.00 | 28 | 1007.5 |
| 20260504002718 | 23 | 94 | 0.0 | 1.6 | 0.00 | 0.00 | 0.00 | 28 | 1007.5 |
| 20260504002215 | 24 | 94 | 1.6 | 4.8 | 0.00 | 0.00 | 0.00 | 27 | 1007.5 |
| 20260504001715 | 24 | 94 | 1.6 | 8.0 | 0.00 | 0.00 | 0.00 | 27 | 1007.6 |
| 20260504001218 | 24 | 94 | 1.6 | 8.0 | 0.00 | 0.00 | 0.00 | 27 | 1007.6 |
| 20260504000715 | 24 | 94 | 3.2 | 9.7 | 0.00 | 0.00 | 0.00 | 26 | 1007.7 |
| 20260504000214 | 25 | 246 | 1.6 | 3.2 | 0.00 | 0.00 | 0.00 | 26 | 1007.9 |
| 20260503235716 | 25 | 246 | 1.6 | 4.8 | 0.00 | 0.00 | 0.00 | 26 | 1007.9 |
| 20260503234715 | 25 | 47 | 0.0 | 3.2 | 0.00 | 0.00 | 0.00 | 27 | 1007.9 |
| 20260503234216 | 25 | 47 | 0.0 | 3.2 | 0.00 | 0.00 | 0.00 | 27 | 1007.9 |
| 20260503233714 | 25 | 47 | 1.6 | 4.8 | 0.00 | 0.00 | 0.00 | 27 | 1008.0 |
| 20260503233215 | 25 | 85 | 1.6 | 3.2 | 0.00 | 0.00 | 0.00 | 26 | 1008.1 |
| 20260503232718 | 25 | 85 | 0.0 | 4.8 | 0.00 | 0.00 | 0.00 | 26 | 1008.1 |
| 20260503232215 | 25 | 84 | 1.6 | 4.8 | 0.00 | 0.00 | 0.00 | 26 | 1008.1 |
| 20260503231714 | 25 | 88 | 1.6 | 4.8 | 0.00 | 0.00 | 0.00 | 25 | 1008.1 |
| 20260503230715 | 26 | 50 | 1.6 | 4.8 | 0.00 | 0.00 | 0.00 | 25 | 1007.9 |
| 20260503230214 | 26 | 49 | 3.2 | 8.0 | 0.00 | 0.00 | 0.00 | 24 | 1008.1 |
| 20260503225716 | 26 | 311 | 1.6 | 4.8 | 0.00 | 0.00 | 0.00 | 25 | 1008.3 |
| 20260503225214 | 26 | 309 | 1.6 | 3.2 | 0.00 | 0.00 | 0.00 | 25 | 1008.1 |
| 20260503224715 | 26 | 309 | 1.6 | 3.2 | 0.00 | 0.00 | 0.00 | 24 | 1008.3 |
| 20260503223715 | 26 | 311 | 3.2 | 4.8 | 0.00 | 0.00 | 0.00 | 24 | 1008.3 |
| 20260503223215 | 26 | 310 | 1.6 | 4.8 | 0.00 | 0.00 | 0.00 | 25 | 1008.3 |
| 20260503222716 | 25 | 82 | 1.6 | 3.2 | 0.00 | 0.00 | 0.00 | 26 | 1008.4 |
| 20260503222215 | 26 | 142 | 4.8 | 9.7 | 0.00 | 0.00 | 0.00 | 23 | 1008.4 |
| 20260503220715 | 26 | 79 | 3.2 | 8.0 | 0.00 | 0.00 | 0.00 | 25 | 1008.5 |
| 20260503220215 | 26 | 355 | 3.2 | 9.7 | 0.00 | 0.00 | 0.00 | 25 | 1008.5 |
| 20260503215718 | 26 | 80 | 4.8 | 11.3 | 0.00 | 0.00 | 0.00 | 23 | 1008.6 |
| 20260503215215 | 26 | 23 | 1.6 | 4.8 | 0.00 | 0.00 | 0.00 | 25 | 1008.6 |
| 20260503214714 | 26 | 326 | 3.2 | 4.8 | 0.00 | 0.00 | 0.00 | 24 | 1008.7 |
| 20260503214216 | 26 | 246 | 1.6 | 8.0 | 0.00 | 0.00 | 0.00 | 25 | 1008.7 |
| 20260503213214 | 26 | 86 | 3.2 | 4.8 | 0.00 | 0.00 | 0.00 | 25 | 1008.8 |
| 20260503212718 | 26 | 331 | 3.2 | 8.0 | 0.00 | 0.00 | 0.00 | 22 | 1008.8 |
| 20260503212214 | 26 | 202 | 4.8 | 8.0 | 0.00 | 0.00 | 0.00 | 22 | 1008.9 |
| 20260503211715 | 26 | 100 | 4.8 | 12.9 | 0.00 | 0.00 | 0.00 | 22 | 1009.0 |
| 20260503211216 | 26 | 328 | 3.2 | 8.0 | 0.00 | 0.00 | 0.00 | 23 | 1009.1 |
| 20260503210715 | 26 | 340 | 3.2 | 9.7 | 0.00 | 0.00 | 0.00 | 23 | 1009.2 |
| 20260503210215 | 26 | 321 | 1.6 | 8.0 | 0.00 | 0.00 | 0.00 | 23 | 1009.2 |
| 20260503205717 | 26 | 323 | 1.6 | 8.0 | 0.00 | 0.00 | 0.00 | 24 | 1009.3 |
| 20260503205215 | 26 | 324 | 3.2 | 9.7 | 0.00 | 0.00 | 0.00 | 25 | 1009.4 |